GW2742 Weather Reports


Display with metric or nautical units.
time (UTC)temp
F
wind
direction
speed
MPH
gust
MPH
rain 1hr
in
rain 24hr
in
rain mn
in
humidity
%
barometer
mb
20260831161024 64 15 1.0 5.0 0.00 0.00 0.00 57 1018.7
20260831160524 64 347 0.0 3.0 0.00 0.00 0.00 53 1018.7
20260831160047 63 122 0.0 2.0 0.00 0.00 0.00 55 1018.7
20260831155524 62 0 0.0 2.0 0.00 0.00 0.00 53 1018.8
20260831155028 62 0 0.0 2.0 0.00 0.00 0.00 56 1018.8
20260831154622 61 0 0.0 2.0 0.00 0.00 0.00 61 1018.9
20260831154025 61 0 0.0 2.0 0.00 0.00 0.00 60 1018.8
20260831153527 60 0 0.0 3.0 0.00 0.00 0.00 61 1018.9
20260831153057 59 146 1.0 3.0 0.00 0.00 0.00 60 1018.8
20260831152526 59 0 0.0 2.0 0.00 0.00 0.00 60 1018.8
20260831152027 58 0 0.0 2.0 0.00 0.00 0.00 63 1018.7
20260831151606 57 0 0.0 2.0 0.00 0.00 0.00 63 1018.7
20260831151026 57 345 0.0 2.0 0.00 0.00 0.00 66 1018.7
20260831150530 57 0 0.0 0.0 0.00 0.00 0.00 69 1018.7
20260831150049 56 0 0.0 0.0 0.00 0.00 0.00 72 1018.7
20260831145525 56 0 0.0 0.0 0.00 0.00 0.00 71 1018.7
20260831145030 55 0 0.0 0.0 0.00 0.00 0.00 75 1018.8
20260831144545 55 0 0.0 0.0 0.00 0.00 0.00 74 1018.7
20260831144025 54 0 0.0 3.0 0.00 0.00 0.00 73 1018.5
20260831143523 54 0 0.0 3.0 0.00 0.00 0.00 74 1018.4
20260831143105 53 113 1.0 3.0 0.00 0.00 0.00 75 1018.4
20260831142525 52 0 0.0 3.0 0.00 0.00 0.00 78 1018.3
20260831142029 52 0 1.0 3.0 0.00 0.00 0.00 78 1018.3
20260831141548 51 0 0.0 1.0 0.00 0.00 0.00 81 1018.1
20260831141026 50 0 0.0 2.0 0.00 0.00 0.00 82 1018.1
20260831140525 49 0 0.0 2.0 0.00 0.00 0.00 85 1018.1
20260831140045 48 0 0.0 2.0 0.00 0.00 0.00 85 1018.0
20260831135526 47 193 0.0 2.0 0.00 0.00 0.00 86 1018.0
20260831135025 46 0 0.0 2.0 0.00 0.00 0.00 87 1018.0
20260831134555 46 0 0.0 2.0 0.00 0.00 0.00 87 1018.0
20260831134024 45 193 0.0 1.0 0.00 0.00 0.00 89 1017.8
20260831133524 44 0 0.0 0.0 0.00 0.00 0.00 90 1017.8
20260831133056 44 0 0.0 0.0 0.00 0.00 0.00 90 1017.7
20260831132525 43 0 0.0 0.0 0.00 0.00 0.00 89 1017.7
20260831132032 43 0 0.0 0.0 0.00 0.00 0.00 88 1017.6
20260831131605 43 0 0.0 0.0 0.00 0.00 0.00 89 1017.5
20260831131025 43 0 0.0 0.0 0.00 0.00 0.00 89 1017.4
20260831130527 43 0 0.0 0.0 0.00 0.00 0.00 88 1017.4
20260831130105 42 0 0.0 0.0 0.00 0.00 0.00 88 1017.3
20260831125525 42 0 0.0 0.0 0.00 0.00 0.00 87 1017.3
20260831125025 42 0 0.0 0.0 0.00 0.00 0.00 87 1017.2
20260831124549 42 0 0.0 0.0 0.00 0.00 0.00 87 1017.2
20260831124025 42 0 0.0 0.0 0.00 0.00 0.00 87 1017.2
20260831123525 42 0 0.0 0.0 0.00 0.00 0.00 87 1017.1
20260831123057 42 0 0.0 0.0 0.00 0.00 0.00 87 1017.0
20260831122529 42 0 0.0 0.0 0.00 0.00 0.00 87 1017.0
20260831122027 42 0 0.0 0.0 0.00 0.00 0.00 87 1017.0
20260831121551 42 0 0.0 0.0 0.00 0.00 0.00 87 1017.0
20260831121027 43 0 0.0 0.0 0.00 0.00 0.00 87 1016.9
20260831120527 43 0 0.0 0.0 0.00 0.00 0.00 87 1017.0
20260831120054 43 0 0.0 0.0 0.00 0.00 0.00 86 1016.9
20260831115528 43 0 0.0 0.0 0.00 0.00 0.00 87 1016.9
20260831115028 43 0 0.0 0.0 0.00 0.00 0.00 87 1016.7
20260831114546 43 0 0.0 0.0 0.00 0.00 0.00 87 1016.9
20260831114025 43 0 0.0 0.0 0.00 0.00 0.00 87 1017.0
20260831113525 43 0 0.0 1.0 0.00 0.00 0.00 87 1016.8
20260831113051 43 0 0.0 3.0 0.00 0.00 0.00 88 1016.7
20260831112527 43 186 0.0 6.0 0.00 0.00 0.00 87 1016.7
20260831112029 44 186 2.0 6.0 0.00 0.00 0.00 87 1016.6
20260831111545 44 179 1.0 6.0 0.00 0.00 0.00 87 1016.7
20260831111032 44 0 0.0 2.0 0.00 0.00 0.00 87 1016.6
20260831110531 44 0 0.0 2.0 0.00 0.00 0.00 88 1016.5
20260831110047 44 0 0.0 1.0 0.00 0.00 0.00 87 1016.5
20260831105530 45 0 0.0 2.0 0.00 0.00 0.00 88 1016.4
20260831105026 45 256 0.0 2.0 0.00 0.00 0.00 88 1016.4
20260831104555 45 0 0.0 3.0 0.00 0.00 0.00 88 1016.5
20260831104025 45 254 1.0 3.0 0.00 0.00 0.00 88 1016.5
20260831103525 45 256 0.0 3.0 0.00 0.00 0.00 88 1016.6
20260831103054 45 217 0.0 2.0 0.00 0.00 0.00 87 1016.4
20260831102529 45 0 0.0 2.0 0.00 0.00 0.00 88 1016.3
20260831102028 45 0 0.0 1.0 0.00 0.00 0.00 88 1016.3
20260831101558 45 0 0.0 2.0 0.00 0.00 0.00 88 1016.4
20260831101028 45 0 0.0 3.0 0.00 0.00 0.00 88 1016.3
20260831100529 45 217 1.0 3.0 0.00 0.00 0.00 88 1016.2
20260831095528 45 302 0.0 2.0 0.00 0.00 0.00 87 1016.1
20260831095031 45 0 0.0 2.0 0.00 0.00 0.00 87 1016.0
20260831094559 46 0 0.0 3.0 0.00 0.00 0.00 87 1015.9
20260831094029 46 1 1.0 3.0 0.00 0.00 0.00 87 1016.0
20260831093523 46 0 0.0 0.0 0.00 0.00 0.00 87 1015.9
20260831093055 46 0 0.0 0.0 0.00 0.00 0.00 87 1016.0
20260831092529 46 0 0.0 0.0 0.00 0.00 0.00 86 1016.0
20260831092032 46 0 0.0 3.0 0.00 0.00 0.00 85 1015.9
20260831091548 46 0 0.0 3.0 0.00 0.00 0.00 86 1016.0
20260831091030 47 159 0.0 3.0 0.00 0.00 0.00 86 1016.0
20260831090527 47 0 0.0 2.0 0.00 0.00 0.00 86 1015.8
20260831090050 47 0 0.0 3.0 0.00 0.00 0.00 85 1015.8
20260831085528 47 0 0.0 4.0 0.00 0.00 0.00 85 1015.8
20260831085028 47 341 2.0 4.0 0.00 0.00 0.00 85 1015.8
20260831084549 47 0 0.0 2.0 0.00 0.00 0.00 85 1015.6
20260831084028 48 0 1.0 2.0 0.00 0.00 0.00 85 1015.6
20260831083525 48 0 0.0 3.0 0.00 0.00 0.00 85 1015.5
20260831083046 47 0 0.0 3.0 0.00 0.00 0.00 85 1015.4
20260831082530 47 186 1.0 3.0 0.00 0.00 0.00 84 1015.4
20260831082024 48 186 2.0 3.0 0.00 0.00 0.00 83 1015.4
20260831081551 48 0 0.0 3.0 0.00 0.00 0.00 81 1015.4
20260831081025 49 0 0.0 4.0 0.00 0.00 0.00 81 1015.4
20260831080528 49 0 2.0 4.0 0.00 0.00 0.00 81 1015.4
20260831080046 50 0 0.0 2.0 0.00 0.00 0.00 83 1015.4
20260831075525 50 0 0.0 2.0 0.00 0.00 0.00 82 1015.2
20260831075031 50 0 0.0 2.0 0.00 0.00 0.00 82 1015.2
20260831074557 50 205 0.0 2.0 0.00 0.00 0.00 82 1015.2
20260831074029 50 205 0.0 2.0 0.00 0.00 0.00 82 1015.4
20260831073526 50 205 0.0 2.0 0.00 0.00 0.00 82 1015.4
20260831073051 50 205 0.0 2.0 0.00 0.00 0.00 82 1015.4
20260831072526 51 205 0.0 2.0 0.00 0.00 0.00 81 1015.3
20260831072026 51 205 0.0 2.0 0.00 0.00 0.00 81 1015.2
20260831071605 51 205 1.0 2.0 0.00 0.00 0.00 81 1015.3
20260831071026 51 205 0.0 2.0 0.00 0.00 0.00 80 1015.2
20260831070528 51 205 0.0 2.0 0.00 0.00 0.00 79 1015.3
20260831070047 52 205 0.0 2.0 0.00 0.00 0.00 78 1015.3
20260831065530 52 0 0.0 2.0 0.00 0.00 0.00 78 1015.2
20260831065032 52 0 1.0 3.0 0.00 0.00 0.00 78 1015.2
20260831064605 52 205 0.0 3.0 0.00 0.00 0.00 78 1015.2
20260831064031 53 204 1.0 4.0 0.00 0.00 0.00 78 1015.1
20260831063527 53 200 1.0 4.0 0.00 0.00 0.00 77 1015.1
20260831063052 53 198 2.0 3.0 0.00 0.00 0.00 77 1015.2
20260831062531 53 241 0.0 3.0 0.00 0.00 0.00 77 1015.2
20260831062025 53 259 1.0 3.0 0.00 0.00 0.00 77 1015.2
20260831061548 54 181 2.0 3.0 0.00 0.00 0.00 77 1015.2
20260831061025 54 239 1.0 3.0 0.00 0.00 0.00 76 1015.2
20260831060528 54 225 1.0 3.0 0.00 0.00 0.00 76 1015.1
20260831060104 54 226 1.0 3.0 0.00 0.00 0.00 75 1015.2
20260831055535 54 0 0.0 0.0 0.00 0.00 0.00 74 1015.2
20260831055027 54 0 0.0 0.0 0.00 0.00 0.00 74 1015.2
20260831054547 54 0 0.0 0.0 0.00 0.00 0.00 74 1015.2
20260831054030 54 0 0.0 2.0 0.00 0.00 0.00 75 1015.1
20260831053527 54 0 0.0 2.0 0.00 0.00 0.00 75 1015.1
20260831053100 54 221 1.0 2.0 0.00 0.00 0.00 75 1015.0
20260831052525 54 221 0.0 3.0 0.00 0.00 0.00 74 1015.2
20260831052027 54 0 0.0 3.0 0.00 0.00 0.00 73 1015.2
20260831051557 55 210 0.0 3.0 0.00 0.00 0.00 73 1015.0
20260831051027 55 210 0.0 4.0 0.00 0.00 0.00 72 1015.0
20260831050528 55 210 1.0 4.0 0.00 0.00 0.00 71 1015.0
20260831050055 55 0 0.0 2.0 0.00 0.00 0.00 72 1015.0
20260831045527 55 0 0.0 2.0 0.00 0.00 0.00 72 1015.1
20260831045028 55 43 1.0 2.0 0.00 0.00 0.00 73 1015.0
20260831044549 55 35 0.0 1.0 0.00 0.00 0.00 72 1014.9
20260831044029 56 0 0.0 1.0 0.00 0.00 0.00 72 1015.0
20260831043527 56 0 0.0 1.0 0.00 0.00 0.00 71 1014.9
20260831043053 56 0 0.0 1.0 0.00 0.00 0.00 71 1015.0
20260831042528 56 0 0.0 2.0 0.00 0.00 0.00 71 1015.0
20260831042027 56 0 0.0 2.0 0.00 0.00 0.00 72 1015.0
20260831041550 56 35 0.0 2.0 0.00 0.00 0.00 70 1015.0
20260831041030 56 0 0.0 2.0 0.00 0.00 0.00 69 1015.0
20260831040528 57 0 0.0 2.0 0.00 0.00 0.00 69 1014.8
20260831040054 57 35 0.0 2.0 0.00 0.00 0.00 69 1014.9
20260831035526 57 0 0.0 3.0 0.00 0.00 0.00 67 1014.8
20260831035028 58 0 0.0 3.0 0.00 0.00 0.00 68 1014.9
20260831034547 58 35 1.0 3.0 0.00 0.00 0.00 67 1015.0
20260831034027 58 35 1.0 2.0 0.00 0.00 0.00 64 1015.0
20260831033528 59 0 0.0 0.0 0.00 0.00 0.00 65 1014.7
20260831033052 59 0 0.0 2.0 0.00 0.00 0.00 63 1014.6
20260831032528 59 0 0.0 2.0 0.00 0.00 0.00 63 1014.8
20260831032030 60 56 0.0 2.0 0.00 0.00 0.00 63 1014.5
20260831031553 60 0 0.0 1.0 0.00 0.00 0.00 61 1014.4
20260831031032 61 0 0.0 2.0 0.00 0.00 0.00 60 1014.4
20260831030525 61 0 0.0 2.0 0.00 0.00 0.00 59 1014.3
20260831030050 61 0 0.0 2.0 0.00 0.00 0.00 58 1014.2
20260831025528 62 0 0.0 2.0 0.00 0.00 0.00 58 1014.3
20260831025028 62 0 0.0 2.0 0.00 0.00 0.00 56 1014.2
20260831024546 62 0 0.0 2.0 0.00 0.00 0.00 55 1014.0
20260831024028 63 55 0.0 2.0 0.00 0.00 0.00 55 1014.0
20260831023528 63 0 0.0 3.0 0.00 0.00 0.00 55 1013.9
20260831023107 63 0 0.0 3.0 0.00 0.00 0.00 55 1013.7
20260831022528 63 55 0.0 2.0 0.00 0.00 0.00 55 1013.7
20260831022027 64 0 0.0 2.0 0.00 0.00 0.00 53 1013.7
20260831021553 64 0 0.0 0.0 0.00 0.00 0.00 53 1013.6
20260831021031 65 0 0.0 0.0 0.00 0.00 0.00 53 1013.5
20260831020527 66 0 0.0 0.0 0.00 0.00 0.00 52 1013.4
20260831020109 66 0 0.0 0.0 0.00 0.00 0.00 51 1013.4
20260831015527 67 0 0.0 0.0 0.00 0.00 0.00 50 1013.3
20260831015025 68 0 0.0 0.0 0.00 0.00 0.00 50 1013.3
20260831014549 69 0 0.0 1.0 0.00 0.00 0.00 50 1013.2
20260831014028 69 0 0.0 2.0 0.00 0.00 0.00 49 1013.1
20260831013529 71 0 0.0 2.0 0.00 0.00 0.00 49 1013.2
20260831013047 72 0 0.0 0.0 0.00 0.00 0.00 44 1013.1
20260831012527 73 0 0.0 0.0 0.00 0.00 0.00 42 1013.1
20260831012028 73 0 0.0 0.0 0.00 0.00 0.00 43 1013.0
20260831011556 74 0 0.0 0.0 0.00 0.00 0.00 45 1012.9
20260831011028 74 0 0.0 0.0 0.00 0.00 0.00 42 1012.9
20260831010526 75 0 0.0 0.0 0.00 0.00 0.00 45 1013.1
20260831010052 76 0 0.0 0.0 0.00 0.00 0.00 43 1013.0
20260831005528 76 0 0.0 0.0 0.00 0.00 0.00 41 1012.8
20260831005027 76 0 0.0 0.0 0.00 0.00 0.00 41 1012.8
20260831004549 76 0 0.0 0.0 0.00 0.00 0.00 41 1012.8
20260831004028 76 0 0.0 0.0 0.00 0.00 0.00 41 1013.0
20260831003528 77 0 0.0 1.0 0.00 0.00 0.00 40 1012.9
20260831003050 77 0 0.0 2.0 0.00 0.00 0.00 44 1013.0
20260831002524 76 295 0.0 2.0 0.00 0.00 0.00 40 1013.0
20260831002033 76 294 0.0 2.0 0.00 0.00 0.00 41 1012.9
20260831001549 76 0 0.0 2.0 0.00 0.00 0.00 44 1013.0
20260831001028 76 311 0.0 3.0 0.00 0.00 0.00 43 1013.0
20260831000528 75 0 0.0 3.0 0.00 0.00 0.00 43 1013.0
20260831000048 76 340 1.0 3.0 0.00 0.00 0.00 42 1012.8
20260830235527 76 239 0.0 2.0 0.00 0.00 0.00 41 1012.8
20260830235027 76 0 1.0 2.0 0.00 0.00 0.00 45 1012.8
20260830234548 76 0 0.0 3.0 0.00 0.00 0.00 43 1012.7
20260830234027 75 0 0.0 3.0 0.00 0.00 0.00 46 1012.8
20260830233524 75 340 0.0 3.0 0.00 0.00 0.00 44 1012.8
20260830233051 74 0 1.0 5.0 0.00 0.00 0.00 40 1013.0
20260830232527 74 24 2.0 6.0 0.00 0.00 0.00 43 1012.9
20260830232027 75 359 2.0 6.0 0.00 0.00 0.00 43 1012.8
20260830231546 75 0 1.0 6.0 0.00 0.00 0.00 44 1012.8
20260830231024 74 264 1.0 6.0 0.00 0.00 0.00 45 1012.8
20260830230525 74 344 3.0 7.0 0.00 0.00 0.00 45 1012.8
20260830230046 74 330 2.0 7.0 0.00 0.00 0.00 47 1012.8
20260830225524 74 345 3.0 8.0 0.00 0.00 0.00 46 1012.8
20260830225026 75 15 4.0 8.0 0.00 0.00 0.00 44 1012.7
20260830224556 75 1 2.0 6.0 0.00 0.00 0.00 48 1012.7
20260830224028 75 359 2.0 6.0 0.00 0.00 0.00 44 1012.6
20260830223525 75 343 1.0 6.0 0.00 0.00 0.00 45 1012.8
20260830223047 75 334 2.0 6.0 0.00 0.00 0.00 43 1012.7
20260830222525 75 249 2.0 7.0 0.00 0.00 0.00 47 1012.6
20260830222025 75 258 1.0 7.0 0.00 0.00 0.00 45 1012.8
20260830221549 75 333 3.0 7.0 0.00 0.00 0.00 44 1012.6
20260830221026 74 46 3.0 7.0 0.00 0.00 0.00 45 1012.8
20260830220528 74 273 2.0 5.0 0.00 0.00 0.00 44 1012.6
20260830220103 74 345 3.0 7.0 0.00 0.00 0.00 49 1012.6
20260830215529 74 54 1.0 7.0 0.00 0.00 0.00 46 1012.6
20260830215024 74 110 2.0 7.0 0.00 0.00 0.00 42 1012.7
20260830214547 74 53 3.0 9.0 0.00 0.00 0.00 43 1012.7
20260830214031 74 94 1.0 9.0 0.00 0.00 0.00 43 1012.8
20260830213527 74 166 3.0 9.0 0.00 0.00 0.00 45 1012.5
20260830213101 74 146 2.0 7.0 0.00 0.00 0.00 44 1012.7
20260830212524 74 22 3.0 7.0 0.00 0.00 0.00 44 1012.9
20260830212025 74 142 3.0 7.0 0.00 0.00 0.00 41 1013.0
20260830211556 74 90 1.0 4.0 0.00 0.00 0.00 47 1013.1
20260830211032 73 159 0.0 6.0 0.00 0.00 0.00 45 1013.1
20260830210527 73 0 2.0 6.0 0.00 0.00 0.00 43 1013.2
20260830210056 73 27 3.0 6.0 0.00 0.00 0.00 43 1013.3
20260830205527 73 45 2.0 6.0 0.00 0.00 0.00 43 1013.2
20260830205028 73 0 1.0 4.0 0.00 0.00 0.00 44 1013.2
20260830204600 73 282 2.0 4.0 0.00 0.00 0.00 43 1013.4
20260830204026 72 104 2.0 6.0 0.00 0.00 0.00 44 1013.5
20260830203524 72 284 1.0 7.0 0.00 0.00 0.00 44 1013.6
20260830203056 72 113 3.0 7.0 0.00 0.00 0.00 45 1013.5
20260830202528 72 103 2.0 7.0 0.00 0.00 0.00 47 1013.3
20260830202031 72 122 2.0 5.0 0.00 0.00 0.00 46 1013.3
20260830201547 72 53 2.0 7.0 0.00 0.00 0.00 44 1013.4
20260830201027 71 0 2.0 7.0 0.00 0.00 0.00 48 1013.5
20260830200524 72 61 3.0 8.0 0.00 0.00 0.00 51 1013.4
20260830200046 71 70 4.0 8.0 0.00 0.00 0.00 46 1013.4
20260830195528 71 93 2.0 8.0 0.00 0.00 0.00 49 1013.4
20260830195027 71 96 4.0 8.0 0.00 0.00 0.00 46 1013.5
20260830194557 71 27 2.0 6.0 0.00 0.00 0.00 45 1013.4
20260830194029 71 41 0.0 4.0 0.00 0.00 0.00 49 1013.3
20260830193525 70 112 2.0 4.0 0.00 0.00 0.00 52 1013.4
20260830193049 70 337 1.0 4.0 0.00 0.00 0.00 47 1013.5
20260830192528 69 0 1.0 8.0 0.00 0.00 0.00 49 1013.5
20260830192024 69 88 3.0 8.0 0.00 0.00 0.00 48 1013.8
20260830191545 69 29 2.0 9.0 0.00 0.00 0.00 52 1013.8
20260830191025 68 28 3.0 9.0 0.00 0.00 0.00 55 1013.9
20260830190527 68 50 4.0 9.0 0.00 0.00 0.00 52 1013.9
20260830190052 67 44 4.0 8.0 0.00 0.00 0.00 57 1013.9
20260830185525 66 36 4.0 9.0 0.00 0.00 0.00 60 1013.9
20260830185027 65 324 5.0 11.0 0.00 0.00 0.00 60 1013.8
20260830184553 65 1 3.0 12.0 0.00 0.00 0.00 64 1013.8
20260830184030 64 335 5.0 14.0 0.00 0.00 0.00 65 1013.7
20260830183531 63 313 5.0 14.0 0.00 0.00 0.00 66 1013.7
20260830183054 62 319 5.0 15.0 0.00 0.00 0.00 68 1013.8
20260830182525 63 353 7.0 15.0 0.00 0.00 0.00 68 1014.1
20260830182026 64 238 4.0 13.0 0.00 0.00 0.00 67 1014.3
20260830181547 63 341 5.0 15.0 0.00 0.00 0.00 68 1014.2
20260830181024 62 320 8.0 15.0 0.00 0.00 0.00 68 1014.3
20260830180528 62 315 6.0 15.0 0.00 0.00 0.00 70 1015.1
20260830180048 60 283 3.0 8.0 0.00 0.00 0.00 76 1014.8
20260830175527 58 285 3.0 10.0 0.00 0.00 0.00 77 1014.8
20260830175032 57 334 3.0 13.0 0.00 0.00 0.00 79 1014.4
20260830174547 57 273 4.0 13.0 0.00 0.00 0.00 80 1014.3
20260830174031 57 341 5.0 14.0 0.00 0.00 0.00 79 1014.3
20260830173529 57 359 5.0 16.0 0.00 0.00 0.00 78 1015.0
20260830173051 58 330 7.0 16.0 0.00 0.00 0.00 76 1015.1
20260830172527 59 325 6.0 15.0 0.00 0.00 0.00 71 1015.2
20260830172024 60 309 6.0 17.0 0.00 0.00 0.00 69 1015.1
20260830171548 60 326 8.0 21.0 0.00 0.00 0.00 68 1015.0
20260830171026 61 319 8.0 23.0 0.00 0.00 0.00 68 1015.0
20260830170525 63 323 10.0 23.0 0.00 0.00 0.00 65 1015.0
20260830170048 65 244 10.0 23.0 0.00 0.00 0.00 60 1014.8
20260830165531 67 345 10.0 20.0 0.00 0.00 0.00 58 1014.7
20260830165028 68 360 8.0 20.0 0.00 0.00 0.00 57 1014.6
20260830164549 71 330 4.0 16.0 0.00 0.00 0.00 58 1014.5
20260830164032 71 355 3.0 11.0 0.00 0.00 0.00 61 1014.4
20260830163525 70 227 2.0 7.0 0.00 0.00 0.00 57 1013.8
20260830163051 70 322 2.0 7.0 0.00 0.00 0.00 62 1013.4
20260830162528 70 269 1.0 7.0 0.00 0.00 0.00 60 1013.1
20260830162028 69 259 2.0 5.0 0.00 0.00 0.00 60 1013.1
20260830161601 69 328 2.0 7.0 0.00 0.00 0.00 59 1013.1